Weather History for KHYA - October, 2012

Change the Weather History Date:

Saturday, October 27, 2012

  Actual Average Record
Temperature  
Mean Temperature 52 °F -  
Max Temperature 64 °F 56 °F 76 °F (1947)
Min Temperature 41 °F 40 °F 23 °F (1966)
Degree Days  
Heating Degree Days 12    
Growing Degree Days 2 (Base 50)    
Moisture  
Dew Point 46 °F    
Average Humidity 81    
Maximum Humidity 97    
Minimum Humidity 48    
Precipitation  
Precipitation 0.00 in - - ()
Sea Level Pressure  
Sea Level Pressure 30.03 in    
Wind  
Wind Speed 3 mph (NE)    
Max Wind Speed 8 mph    
Max Gust Speed -    
Visibility 10 miles    
Events      
Averages and records for this station are not official NWS values.
T = Trace of Precipitation, MM = Missing Value Source: NWS Daily Summary

Daily Weather History Graph

Daily Weather History Graph

Search for Another Location

Airport or City:

Trip Planner

Search our weather history database for the weather conditions in past years. The results will help you decide how hot, cold, wet, or windy it might be!

Date:

Astronomy

Oct. 27, 2012 Rise Set
Actual Time 7:07 AM EDT 5:41 PM EDT
Civil Twilight 6:39 AM EDT 6:10 PM EDT
Nautical Twilight 6:06 AM EDT 6:42 PM EDT
Astronomical Twilight 5:34 AM EDT 7:14 PM EDT
Moon 4:26 PM EDT (10/27) 4:58 AM EDT (10/27)
Length of Visible Light 11h 31m
Length of Day
10h 33m
Waxing Gibbous, 96% of the Moon is Illuminated
Oct 27
Waxing Gibbous
Oct 29
Full
Nov 6
Last Quarter
Nov 13
New
Nov 20
First Quarter

Hourly Weather History & Observations

Time (EDT) Temp. Dew Point Humidity Pressure Visibility Wind Dir Wind Speed Gust Speed Precip Events Conditions
12:56 AM 43.0 °F 42.1 °F 97% 30.12 in 10.0 mi Calm Calm - N/A   Clear
1:56 AM 42.1 °F 41.0 °F 96% 30.11 in 10.0 mi Calm Calm - N/A   Clear
2:56 AM 42.1 °F 39.9 °F 92% 30.10 in 10.0 mi Calm Calm - N/A   Clear
3:56 AM 41.0 °F 39.0 °F 93% 30.08 in 10.0 mi Calm Calm - N/A   Clear
4:56 AM 41.0 °F 39.0 °F 93% 30.07 in 10.0 mi Calm Calm - N/A   Clear
5:56 AM 41.0 °F 39.0 °F 93% 30.06 in 10.0 mi Calm Calm - N/A   Clear
6:56 AM 41.0 °F 39.9 °F 96% 30.06 in 10.0 mi Calm Calm - N/A   Clear
7:56 AM 45.0 °F 43.0 °F 93% 30.07 in 10.0 mi Calm Calm - N/A   Clear
8:56 AM 55.9 °F 52.0 °F 87% 30.08 in 10.0 mi Calm Calm - N/A   Clear
9:56 AM 61.0 °F 46.0 °F 58% 30.06 in 10.0 mi East 5.8 mph - N/A   Clear
10:56 AM 63.0 °F 44.1 °F 50% 30.05 in 10.0 mi Variable 5.8 mph - N/A   Clear
11:56 AM 64.0 °F 46.0 °F 52% 30.03 in 10.0 mi North 8.1 mph - N/A   Clear
1:56 PM 64.9 °F 46.0 °F 50% 30.01 in 10.0 mi NNE 8.1 mph - N/A   Clear
2:56 PM 63.0 °F 43.0 °F 48% 29.99 in 10.0 mi North 8.1 mph - N/A   Clear
3:56 PM 62.1 °F 44.1 °F 52% 29.99 in 10.0 mi NNE 5.8 mph - N/A   Clear
4:56 PM 57.9 °F 46.0 °F 65% 29.99 in 10.0 mi NNE 6.9 mph - N/A   Clear
5:56 PM 55.9 °F 50.0 °F 80% 30.00 in 10.0 mi NNE 5.8 mph - N/A   Clear
6:56 PM 55.0 °F 52.0 °F 89% 30.00 in 10.0 mi NNE 5.8 mph - N/A   Clear
7:56 PM 54.0 °F 52.0 °F 93% 30.00 in 10.0 mi NE 8.1 mph - N/A   Clear
8:56 PM 54.0 °F 52.0 °F 93% 29.99 in 10.0 mi NE 6.9 mph - N/A   Clear
9:56 PM 53.1 °F 51.1 °F 93% 29.99 in 10.0 mi NE 6.9 mph - N/A   Clear
10:56 PM 53.1 °F 50.0 °F 89% 29.97 in 10.0 mi NE 6.9 mph - N/A   Clear
11:52 PM 53.6 °F 50.0 °F 88% 29.97 in 10.0 mi NE 3.5 mph - N/A   Mostly Cloudy
11:56 PM 53.1 °F 51.1 °F 93% 29.97 in 10.0 mi NE 3.5 mph - N/A   Mostly Cloudy